H1 CPF 2 NER 2021 2 11 9 042 01 glonass129 H2 1106402 9129 37868 2021 2 11 0 0 0 2021 2 14 23 45 0 900 1 1 0 0 0 1 H9 10 0 59256 0.00000 0 9922869.462 -10379855.470 -21058731.787 10 0 59256 900.00000 0 12424851.962 -10624250.066 -19562378.743 10 0 59256 1800.00000 0 14696121.839 -11021111.037 -17685452.174 10 0 59256 2700.00000 0 16684938.418 -11530813.829 -15464666.063 10 0 59256 3600.00000 0 18349622.118 -12105896.781 -12943378.608 10 0 59256 4500.00000 0 19660063.639 -12693203.877 -10170733.792 10 0 59256 5400.00000 0 20598756.548 -13236278.091 -7200694.044 10 0 59256 6300.00000 0 21161312.440 -13677903.393 -4090983.545 10 0 59256 7200.00000 0 21356439.792 -13962687.659 -901963.464 10 0 59256 8100.00000 0 21205390.087 -14039577.447 2304538.725 10 0 59256 9000.00000 0 20740896.917 -13864199.058 5466423.107 10 0 59256 9900.00000 0 20005654.553 -13400927.899 8522511.396 10 0 59256 10800.00000 0 19050401.196 -12624599.895 11413718.714 10 0 59256 11700.00000 0 17931688.242 -11521793.915 14084181.437 10 0 59256 12600.00000 0 16709429.065 -10091631.971 16482320.405 10 0 59256 13500.00000 0 15444329.640 -8346063.996 18561820.537 10 0 59256 14400.00000 0 14195307.620 -6309625.242 20282509.587 10 0 59256 15300.00000 0 13017006.330 -4018675.518 21611120.614 10 0 59256 16200.00000 0 11957506.075 -1520150.649 22521924.953 10 0 59256 17100.00000 0 11056326.854 1130123.911 22997224.664 10 0 59256 18000.00000 0 10342804.656 3869489.588 23027695.672 10 0 59256 18900.00000 0 9834908.300 6630798.719 22612575.225 10 0 59256 19800.00000 0 9538545.960 9344951.675 21759689.646 10 0 59256 20700.00000 0 9447390.684 11943524.389 20485320.918 10 0 59256 21600.00000 0 9543233.102 14361379.596 18813913.194 10 0 59256 22500.00000 0 9796847.883 16539155.030 16777622.999 10 0 59256 23400.00000 0 10169339.227 18425526.092 14415719.759 10 0 59256 24300.00000 0 10613910.532 19979149.052 11773846.064 10 0 59256 25200.00000 0 11077985.215 21170203.326 8903150.011 10 0 59256 26100.00000 0 11505590.320 21981467.300 5859304.865 10 0 59256 27000.00000 0 11839902.712 22408881.291 2701433.939 10 0 59256 27900.00000 0 12025849.867 22461572.512 -509038.938 10 0 59256 28800.00000 0 12012654.146 22161339.500 -3709590.764 10 0 59256 29700.00000 0 11756211.031 21541616.676 -6837828.368 10 0 59256 30600.00000 0 11221198.264 20645962.022 -9832719.858 10 0 59256 31500.00000 0 10382823.908 19526131.714 -12635802.701 10 0 59256 32400.00000 0 9228136.610 18239823.548 -15192343.060 10 0 59256 33300.00000 0 7756839.990 16848185.556 -17452421.840 10 0 59256 34200.00000 0 5981574.567 15413196.491 -19371924.505 10 0 59256 35100.00000 0 3927653.550 13995030.373 -20913413.918 10 0 59256 36000.00000 0 1632262.432 12649517.849 -22046868.242 10 0 59256 36900.00000 0 -856844.499 11425812.683 -22750268.908 10 0 59256 37800.00000 0 -3483096.113 10364362.516 -23010027.173 10 0 59256 38700.00000 0 -6183231.163 9495269.543 -22821241.321 10 0 59256 39600.00000 0 -8889710.171 8837109.692 -22187780.225 10 0 59256 40500.00000 0 -11533311.108 8396258.888 -21122192.644 10 0 59256 41400.00000 0 -14045800.052 8166753.102 -19645445.197 10 0 59256 42300.00000 0 -16362565.082 8130686.015 -17786495.399 10 0 59256 43200.00000 0 -18425103.802 8259125.210 -15581709.369 10 0 59256 44100.00000 0 -20183261.403 8513505.904 -13074136.758 10 0 59256 45000.00000 0 -21597126.994 8847441.242 -10312658.201 10 0 59256 45900.00000 0 -22638510.734 9208870.810 -7351022.899 10 0 59256 46800.00000 0 -23291942.125 9542455.198 -4246795.852 10 0 59256 47700.00000 0 -23555150.025 9792114.515 -1060235.901 10 0 59256 48600.00000 0 -23439006.764 9903603.207 2146873.258 10 0 59256 49500.00000 0 -22966941.107 9827012.551 5312416.386 10 0 59256 50400.00000 0 -22173846.702 9519095.687 8375141.334 10 0 59256 51300.00000 0 -21104533.399 8945317.990 11275832.503 10 0 59256 52200.00000 0 -19811787.301 8081547.214 13958441.376 10 0 59256 53100.00000 0 -18354121.170 6915313.165 16371153.388 10 0 59256 54000.00000 0 -16793309.177 5446584.568 18467372.112 10 0 59256 54900.00000 0 -15191808.080 3688030.587 20206603.351 10 0 59256 55800.00000 0 -13610171.322 1664755.639 21555223.640 10 0 59256 56700.00000 0 -12104562.327 -586482.534 22487119.877 10 0 59256 57600.00000 0 -10724468.921 -3018540.808 22984188.900 10 0 59256 58500.00000 0 -9510712.661 -5575594.037 23036688.142 10 0 59256 59400.00000 0 -8493834.727 -8195205.730 22643430.852 10 0 59256 60300.00000 0 -7692924.841 -10810682.961 21811821.776 10 0 59256 61200.00000 0 -7114941.862 -13353620.415 20557731.657 10 0 59256 62100.00000 0 -6754554.706 -15756530.494 18905211.561 10 0 59256 63000.00000 0 -6594511.063 -17955452.204 16886050.642 10 0 59256 63900.00000 0 -6606519.711 -19892431.539 14539183.845 10 0 59256 64800.00000 0 -6752610.752 -21517770.676 11909958.825 10 0 59256 65700.00000 0 -6986917.943 -22791951.905 9049274.274 10 0 59256 66600.00000 0 -7257809.115 -23687154.962 6012604.753 10 0 59256 67500.00000 0 -7510275.373 -24188302.822 2858929.803 10 0 59256 68400.00000 0 -7688478.032 -24293590.387 -350412.422 10 0 59256 69300.00000 0 -7738344.771 -24014472.068 -3552924.490 10 0 59256 70200.00000 0 -7610103.592 -23375107.256 -6686177.915 10 0 59256 71100.00000 0 -7260645.106 -22411285.913 -9689045.099 10 0 59256 72000.00000 0 -6655610.600 -21168879.020 -12502909.165 10 0 59256 72900.00000 0 -5771114.710 -19701879.318 -15072826.273 10 0 59256 73800.00000 0 -4595027.069 -18070115.607 -17348615.846 10 0 59256 74700.00000 0 -3127756.351 -16336738.174 -19285855.597 10 0 59256 75600.00000 0 -1382501.544 -14565582.751 -20846760.591 10 0 59256 76500.00000 0 615041.640 -12818525.527 -22000928.164 10 0 59256 77400.00000 0 2827507.733 -11152941.905 -22725933.581 10 0 59256 78300.00000 0 5207187.480 -9619376.850 -23007764.777 10 0 59256 79200.00000 0 7697797.102 -8259525.124 -22841088.073 10 0 59256 80100.00000 0 10236616.230 -7104606.082 -22229340.347 10 0 59256 81000.00000 0 12756904.450 -6174200.319 -21184646.923 10 0 59256 81900.00000 0 15190494.873 -5475595.480 -19727567.867 10 0 59256 82800.00000 0 17470455.808 -5003666.619 -17886678.964 10 0 59256 83700.00000 0 19533709.285 -4741293.625 -15697996.794 10 0 59256 84600.00000 0 21323497.337 -4660295.481 -13204260.331 10 0 59256 85500.00000 0 22791593.657 -4722839.372 -10454084.271 10 0 59257 0.00000 0 23900169.500 -4883262.821 -7501001.641 10 0 59257 900.00000 0 24623237.252 -5090229.812 -4402414.720 10 0 59257 1800.00000 0 24947613.821 -5289128.772 -1218476.406 10 0 59257 2700.00000 0 24873364.514 -5424609.488 1989077.210 10 0 59257 3600.00000 0 24413712.503 -5443152.225 5158119.417 10 0 59257 4500.00000 0 23594418.471 -5295560.232 8227327.931 10 0 59257 5400.00000 0 22452658.719 -4939271.251 11137359.909 10 0 59257 6300.00000 0 21035449.539 -4340391.322 13831985.058 10 0 59257 7200.00000 0 19397684.489 -3475366.149 16259156.128 10 0 59257 8100.00000 0 17599866.518 -2332220.474 18371997.599 10 0 59257 9000.00000 0 15705628.932 -911313.794 20129695.114 10 0 59257 9900.00000 0 13779147.448 774419.307 21498270.043 10 0 59257 10800.00000 0 11882549.483 2699755.080 22451225.750 10 0 59257 11700.00000 0 10073426.740 4827982.264 22970054.318 10 0 59257 12600.00000 0 8402552.852 7112187.990 23044594.720 10 0 59257 13500.00000 0 6911899.364 9496976.955 22673235.824 10 0 59257 14400.00000 0 5633031.370 11920555.153 21862959.986 10 0 59257 15300.00000 0 4585948.880 14317094.348 20629225.499 10 0 59257 16200.00000 0 3778421.989 16619281.669 18995688.759 10 0 59257 17100.00000 0 3205847.912 18760950.594 16993769.630 10 0 59257 18000.00000 0 2851636.719 20679685.333 14662066.361 10 0 59257 18900.00000 0 2688110.625 22319290.982 12045629.201 10 0 59257 19800.00000 0 2677880.302 23632026.386 9195104.740 10 0 59257 20700.00000 0 2775641.339 24580505.609 6165765.955 10 0 59257 21600.00000 0 2930315.835 25139187.025 3016445.594 10 0 59257 22500.00000 0 3087448.824 25295385.768 -191606.961 10 0 59257 23400.00000 0 3191757.744 25049764.972 -3395922.955 10 0 59257 24300.00000 0 3189725.841 24416283.234 -6534041.628 10 0 59257 25200.00000 0 3032127.848 23421598.887 -9544742.546 10 0 59257 26100.00000 0 2676378.635 22103955.069 -12369257.123 10 0 59257 27000.00000 0 2088602.747 20511592.077 -14952433.865 10 0 59257 27900.00000 0 1245334.470 18700754.040 -17243832.725 10 0 59257 28800.00000 0 134774.020 16733374.600 -19198725.375 10 0 59257 29700.00000 0 -1242455.478 14674540.155 -20778980.469 10 0 59257 30600.00000 0 -2873083.878 12589838.693 -21953815.606 10 0 59257 31500.00000 0 -4731513.365 10542707.020 -22700400.673 10 0 59257 32400.00000 0 -6780668.414 8591888.819 -23004300.768 10 0 59257 33300.00000 0 -8973340.760 6789110.830 -22859750.377 10 0 59257 34200.00000 0 -11253972.550 5177074.637 -22269754.155 10 0 59257 35100.00000 0 -13560802.354 3787847.607 -21246013.333 10 0 59257 36000.00000 0 -15828283.499 2641719.020 -19808680.361 10 0 59257 36900.00000 0 -17989672.811 1746567.432 -17985947.812 10 0 59257 37800.00000 0 -19979681.051 1097763.301 -15813480.894 10 0 59257 38700.00000 0 -21737074.120 678608.135 -13333705.784 10 0 59257 39600.00000 0 -23207116.427 461288.789 -10594968.912 10 0 59257 40500.00000 0 -24343755.000 408303.944 -7650584.520 10 0 59257 41400.00000 0 -25111454.081 474300.083 -4557789.890 10 0 59257 42300.00000 0 -25486604.917 608237.543 -1376629.261 10 0 59257 43200.00000 0 -25458453.584 755793.700 1831211.518 10 0 59257 44100.00000 0 -25029509.777 861901.013 5003596.890 10 0 59257 45000.00000 0 -24215421.496 873312.521 8079137.086 10 0 59257 45900.00000 0 -23044322.316 741086.830 10998364.644 10 0 59257 46800.00000 0 -21555679.724 422888.432 13704870.066 10 0 59257 47700.00000 0 -19798693.515 -114992.656 16146375.867 10 0 59257 48600.00000 0 -17830311.108 -895986.051 18275729.702 10 0 59257 49500.00000 0 -15712942.056 -1932019.825 20051799.068 10 0 59257 50400.00000 0 -13511965.934 -3222783.914 21440251.847 10 0 59257 51300.00000 0 -11293135.652 -4755509.310 22414209.188 10 0 59257 52200.00000 0 -9119982.294 -6505273.212 22954759.349 10 0 59257 53100.00000 0 -7051327.403 -8435818.968 23051323.388 10 0 59257 54000.00000 0 -5139004.102 -10500858.825 22701865.957 10 0 59257 54900.00000 0 -3425880.105 -12645807.808 21912946.846 10 0 59257 55800.00000 0 -1944263.659 -14809879.292 20699611.400 10 0 59257 56700.00000 0 -714758.073 -16928457.804 19085120.541 10 0 59257 57600.00000 0 254387.557 -18935652.677 17100523.748 10 0 59257 58500.00000 0 967403.869 -20766928.010 14784081.188 10 0 59257 59400.00000 0 1440596.981 -22361700.397 12180544.048 10 0 59257 60300.00000 0 1701430.406 -23665796.308 9340304.899 10 0 59257 61200.00000 0 1787130.673 -24633665.790 6318432.991 10 0 59257 62100.00000 0 1742874.584 -25230258.539 3173611.944 10 0 59257 63000.00000 0 1619634.224 -25432481.831 -33000.144 10 0 59257 63900.00000 0 1471770.937 -25230176.859 -3238965.832 10 0 59257 64800.00000 0 1354480.927 -24626570.194 -6381794.832 10 0 59257 65700.00000 0 1321202.130 -23638179.287 -9400176.710 10 0 59257 66600.00000 0 1421094.207 -22294174.347 -12235194.054 10 0 59257 67500.00000 0 1696700.847 -20635222.393 -14831490.609 10 0 59257 68400.00000 0 2181895.969 -18711861.729 -17138369.680 10 0 59257 69300.00000 0 2900203.271 -16582475.455 -19110799.559 10 0 59257 70200.00000 0 3863562.466 -14310950.022 -20710304.908 10 0 59257 71100.00000 0 5071596.210 -11964118.225 -21905725.666 10 0 59257 72000.00000 0 6511409.930 -9609095.287 -22673828.038 10 0 59257 72900.00000 0 8157933.757 -7310620.812 -22999755.547 10 0 59257 73800.00000 0 9974792.418 -5128518.757 -22877311.677 10 0 59257 74700.00000 0 11915666.212 -3115382.137 -22309069.263 10 0 59257 75600.00000 0 13926085.364 -1314578.963 -21306305.453 10 0 59257 76500.00000 0 15945581.694 241338.202 -19888764.697 10 0 59257 77400.00000 0 17910106.528 1531754.141 -18084255.598 10 0 59257 78300.00000 0 19754612.830 2548599.704 -15928090.820 10 0 59257 79200.00000 0 21415692.911 3296424.642 -13462382.160 10 0 59257 80100.00000 0 22834161.074 3791934.421 -10735205.749 10 0 59257 81000.00000 0 23957473.267 4063013.644 -7799654.657 10 0 59257 81900.00000 0 24741883.134 4147280.000 -4712798.173 10 0 59257 82800.00000 0 25154245.163 4090232.170 -1534568.742 10 0 59257 83700.00000 0 25173390.779 3943071.753 1673401.438 10 0 59257 84600.00000 0 24791021.420 3760292.451 4848971.512 10 0 59257 85500.00000 0 24012082.762 3597138.911 7930687.751 10 0 59258 0.00000 0 22854605.925 3507042.453 10858961.407 10 0 59258 900.00000 0 21349023.274 3539141.696 13577207.107 10 0 59258 1800.00000 0 19536988.800 3735990.727 16032920.019 10 0 59258 2700.00000 0 17469751.351 4131552.104 18178673.588 10 0 59258 3600.00000 0 15206149.322 4749556.233 19973019.443 10 0 59258 4500.00000 0 12810308.514 5602296.668 21381273.906 10 0 59258 5400.00000 0 10349137.647 6689911.039 22376177.459 10 0 59258 6300.00000 0 7889723.563 8000178.348 22938415.688 10 0 59258 7200.00000 0 5496732.185 9508842.103 23056992.454 10 0 59258 8100.00000 0 3229920.936 11180447.511 22729448.456 10 0 59258 9000.00000 0 1141863.888 12969660.085 21961920.693 10 0 59258 9900.00000 0 -724017.420 14823013.177 20769040.843 10 0 59258 10800.00000 0 -2335036.757 16681014.317 19173673.149 10 0 59258 11700.00000 0 -3670374.245 18480525.042 17206495.042 10 0 59258 12600.00000 0 -4721708.388 20157316.986 14905426.558 10 0 59258 13500.00000 0 -5493322.220 21648698.968 12314917.415 10 0 59258 14400.00000 0 -6001678.267 22896105.919 9485103.495 10 0 59258 15300.00000 0 -6274479.160 23847541.054 6470847.429 10 0 59258 16200.00000 0 -6349252.525 24459767.916 3330680.652 10 0 59258 17100.00000 0 -6271519.218 24700158.552 125666.834 10 0 59258 18000.00000 0 -6092622.108 24548117.928 -3081791.100 10 0 59258 18900.00000 0 -5867307.695 23996022.240 -6229176.487 10 0 59258 19800.00000 0 -5651164.045 23049629.160 -9255091.943 10 0 59258 20700.00000 0 -5498025.209 21727940.641 -12100474.090 10 0 59258 21600.00000 0 -5457454.221 20062522.417 -14709764.511 10 0 59258 22500.00000 0 -5572413.692 18096307.788 -17032012.173 10 0 59258 23400.00000 0 -5877225.013 15881935.700 -19021883.975 10 0 59258 24300.00000 0 -6395904.836 13479693.194 -20640562.254 10 0 59258 25200.00000 0 -7140951.017 10955149.330 -21856510.646 10 0 59258 26100.00000 0 -8112630.708 8376580.865 -22646092.704 10 0 59258 27000.00000 0 -9298801.491 5812298.620 -22994031.084 10 0 59258 27900.00000 0 -10675273.367 3327987.279 -22893698.625 10 0 59258 28800.00000 0 -12206696.133 984170.462 -22347236.313 10 0 59258 29700.00000 0 -13847934.169 -1166093.003 -21365496.788 10 0 59258 30600.00000 0 -15545870.018 -3079186.084 -19967815.637 10 0 59258 31500.00000 0 -17241559.913 -4722502.440 -18181616.226 10 0 59258 32400.00000 0 -18872649.821 -6075543.691 -16041857.028 10 0 59258 33300.00000 0 -20375949.826 -7130501.689 -13590333.487 10 0 59258 34200.00000 0 -21690058.239 -7892304.288 -10874849.210 10 0 59258 35100.00000 0 -22757925.259 -8378125.851 -7948273.676 10 0 59258 36000.00000 0 -23529248.845 -8616386.153 -4867505.623 10 0 59258 36900.00000 0 -23962602.981 -8645282.582 -1692363.043 10 0 59258 37800.00000 0 -24027210.012 -8510919.855 1515578.260 10 0 59258 38700.00000 0 -23704284.092 -8265117.884 4694174.935 10 0 59258 39600.00000 0 -22987890.768 -7962991.331 7781912.140 10 0 59258 40500.00000 0 -21885288.021 -7660403.359 10719082.834 10 0 59258 41400.00000 0 -20416735.591 -7411400.744 13448928.347 10 0 59258 42300.00000 0 -18614781.223 -7265737.726 15918719.285 10 0 59258 43200.00000 0 -16523053.994 -7266591.888 18080757.391 10 0 59258 44100.00000 0 -14194614.553 -7448566.984 19893280.642 10 0 59258 45000.00000 0 -11689930.127 -7836065.601 21321255.651 10 0 59258 45900.00000 0 -9074556.942 -8442099.244 22337043.692 10 0 59258 46800.00000 0 -6416624.261 -9267585.561 22920928.700 10 0 59258 47700.00000 0 -3784222.319 -10301162.558 23061497.943 10 0 59258 48600.00000 0 -1242800.098 -11519528.724 22755868.356 10 0 59258 49500.00000 0 1147321.387 -12888296.583 22009753.971 10 0 59258 50400.00000 0 3333218.956 -14363326.237 20837372.280 10 0 59258 51300.00000 0 5271327.550 -15892485.674 19261190.017 10 0 59258 52200.00000 0 6929010.318 -17417766.848 17311511.433 10 0 59258 53100.00000 0 8285673.339 -18877671.266 15025914.993 10 0 59258 54000.00000 0 9333378.248 -20209767.074 12448547.214 10 0 59258 54900.00000 0 10076926.455 -21353311.579 9629285.262 10 0 59258 55800.00000 0 10533410.441 -22251829.438 6622782.841 10 0 59258 56700.00000 0 10731250.030 -22855537.628 3487416.664 10 0 59258 57600.00000 0 10708753.414 -23123513.866 284153.248 10 0 59258 58500.00000 0 10512263.182 -23025515.093 -2924641.831 10 0 59258 59400.00000 0 10193965.806 -22543367.026 -6076428.436 10 0 59258 60300.00000 0 9809457.939 -21671863.532 -9109725.130 10 0 59258 61200.00000 0 9415173.841 -20419135.460 -11965325.429 10 0 59258 62100.00000 0 9065784.683 -18806471.233 -14587471.521 10 0 59258 63000.00000 0 8811681.993 -16867595.137 -16924960.665 10 0 59258 63900.00000 0 8696654.085 -14647432.736 -18932160.800 10 0 59258 64800.00000 0 8755855.961 -12200415.024 -20569914.102 10 0 59258 65700.00000 0 9014160.439 -9588392.714 -21806309.744 10 0 59258 66600.00000 0 9484961.623 -6878248.871 -22617310.102 10 0 59258 67500.00000 0 10169482.089 -4139310.757 -22987218.037 10 0 59258 68400.00000 0 11056613.373 -1440670.000 -22908976.424 10 0 59258 69300.00000 0 12123296.168 1151476.171 -22384294.694 10 0 59258 70200.00000 0 13335423.574 3576351.359 -21423600.910 10 0 59258 71100.00000 0 14649228.313 5780888.963 -20045821.405 10 0 59258 72000.00000 0 16013094.320 7721688.966 -18277993.572 10 0 59258 72900.00000 0 17369715.280 9366562.470 -16154720.642 10 0 59258 73800.00000 0 18658508.214 10695601.643 -13717480.298 10 0 59258 74700.00000 0 19818179.760 11701732.917 -11013801.858 10 0 59258 75600.00000 0 20789336.738 12390733.349 -8096329.072 10 0 59258 76500.00000 0 21517031.138 12780712.551 -5021787.647 10 0 59258 77400.00000 0 21953132.832 12901084.895 -1849878.345 10 0 59258 78300.00000 0 22058431.018 12791077.993 1357882.445 10 0 59258 79200.00000 0 21804377.133 12497842.375 4539352.028 10 0 59258 80100.00000 0 21174397.167 12074243.485 7632957.658 10 0 59258 81000.00000 0 20164719.598 11576429.921 10578877.096 10 0 59258 81900.00000 0 18784685.152 11061280.444 13320181.531 10 0 59258 82800.00000 0 17056526.212 10583836.831 15803919.827 10 0 59258 83700.00000 0 15014625.371 10194829.714 17982124.676 10 0 59258 84600.00000 0 12704283.740 9938400.211 19812722.813 10 0 59258 85500.00000 0 10180049.515 9850111.755 21260333.302 10 0 59259 0.00000 0 7503674.801 9955334.405 22296940.030 10 0 59259 900.00000 0 4741783.406 10268068.998 22902426.802 10 0 59259 1800.00000 0 1963344.535 10790259.125 23064965.376 10 0 59259 2700.00000 0 -762945.739 11511622.024 22781249.561 10 0 59259 3600.00000 0 -3371269.151 12410004.646 22056570.557 10 0 59259 4500.00000 0 -5801169.952 13452252.993 20904731.280 10 0 59259 5400.00000 0 -7999818.564 14595559.911 19347800.021 10 0 59259 6300.00000 0 -9923961.348 15789237.460 17415706.405 10 0 59259 7200.00000 0 -11541475.868 16976841.813 15145685.422 10 0 59259 8100.00000 0 -12832466.875 18098563.624 12581578.096 10 0 59259 9000.00000 0 -13789856.673 19093784.910 9773000.276 10 0 59259 9900.00000 0 -14419444.202 19903695.677 6774393.932 10 0 59259 10800.00000 0 -14739429.317 20473860.013 3643978.096 10 0 59259 11700.00000 0 -14779421.257 20756622.558 442619.088 10 0 59259 12600.00000 0 -14578972.314 20713252.123 -2767357.943 10 0 59259 13500.00000 0 -14185698.351 20315729.702 -5923392.463 10 0 59259 14400.00000 0 -13653065.872 19548102.752 -8963921.987 10 0 59259 15300.00000 0 -13037940.133 18407345.890 -11829599.809 10 0 59259 16200.00000 0 -12397999.516 16903689.180 -14464471.414 10 0 59259 17100.00000 0 -11789127.420 15060398.068 -16817084.796 10 0 59259 18000.00000 0 -11262894.150 12913012.731 -18841511.087 10 0 59259 18900.00000 0 -10864237.368 10508077.964 -20498254.141 10 0 59259 19800.00000 0 -10629441.048 7901416.647 -21755030.181 10 0 59259 20700.00000 0 -10584499.765 5156019.552 -22587401.577 10 0 59259 21600.00000 0 -10743938.318 2339640.474 -22979252.233 10 0 59259 22500.00000 0 -11110136.777 -477801.972 -22923095.535 10 0 59259 23400.00000 0 -11673189.190 -3226906.506 -22420209.475 10 0 59259 24300.00000 0 -12411301.051 -5841442.866 -21480597.260 10 0 59259 25200.00000 0 -13291707.619 -8260866.301 -20122775.297 10 0 59259 26100.00000 0 -14272072.934 -10432588.383 -18373393.951 10 0 59259 27000.00000 0 -15302309.044 -12313910.558 -16266699.790 10 0 59259 27900.00000 0 -16326737.386 -13873541.487 -13843851.014 10 0 59259 28800.00000 0 -17286500.004 -15092636.989 -11152100.666 10 0 59259 29700.00000 0 -18122118.153 -15965321.850 -8243864.584 10 0 59259 30600.00000 0 -18776089.999 -16498674.606 -5175693.103 10 0 59259 31500.00000 0 -19195417.964 -16712178.912 -2007167.279 10 0 59259 32400.00000 0 -19333959.658 -16636667.394 1200258.491 10 0 59259 33300.00000 0 -19154504.127 -16312804.770 4384444.849 10 0 59259 34200.00000 0 -18630487.178 -15789176.046 7483763.905 10 0 59259 35100.00000 0 -17747274.686 -15120061.363 10438281.062 10 0 59259 36000.00000 0 -16502960.887 -14362991.576 13190900.201 10 0 59259 36900.00000 0 -14908649.129 -13576187.393 15688451.239 10 0 59259 37800.00000 0 -12988203.529 -12815988.877 17882700.470 10 0 59259 38700.00000 0 -10777481.756 -12134382.185 19731265.815 10 0 59259 39600.00000 0 -8323080.223 -11576725.926 21198420.905 10 0 59259 40500.00000 0 -5680642.452 -11179771.058 22255774.034 10 0 59259 41400.00000 0 -2912798.952 -10970056.074 22882810.191 10 0 59259 42300.00000 0 -86821.918 -10962743.932 23067286.586 10 0 59259 43200.00000 0 2727910.692 -11160949.175 22805474.460 10 0 59259 44100.00000 0 5462539.177 -11555583.817 22102242.343 10 0 59259 45000.00000 0 8051327.827 -12125729.521 20970978.355 10 0 59259 45900.00000 0 10434146.409 -12839522.065 19433351.784 10 0 59259 46800.00000 0 12558725.923 -13655513.031 17518916.725 10 0 59259 47700.00000 0 14382595.658 -14524453.715 15264563.425 10 0 59259 48600.00000 0 15874621.133 -15391428.336 12713825.791 10 0 59259 49500.00000 0 17016078.350 -16198248.508 9916056.356 10 0 59259 50400.00000 0 17801218.520 -16886009.174 6925482.988 10 0 59259 51300.00000 0 18237298.460 -17397698.551 3800164.343 10 0 59259 52200.00000 0 18344074.193 -17680751.381 600863.573 10 0 59259 53100.00000 0 18152777.954 -17689436.316 -2610137.746 10 0 59259 54000.00000 0 17704621.146 -17386974.489 -5770261.898 10 0 59259 54900.00000 0 17048886.226 -16747297.214 -8817868.557 10 0 59259 55800.00000 0 16240688.635 -15756365.755 -11693473.883 10 0 59259 56700.00000 0 15338504.409 -14412994.684 -14340929.592 10 0 59259 57600.00000 0 14401569.541 -12729141.613 -16708537.121 10 0 59259 58500.00000 0 13487262.882 -10729649.080 -18750073.241 10 0 59259 59400.00000 0 12648585.156 -8451448.090 -20425705.629 10 0 59259 60300.00000 0 11931842.384 -5942255.951 -21702779.358 10 0 59259 61200.00000 0 11374633.020 -3258822.972 -22556458.229 10 0 59259 62100.00000 0 11004224.709 -464801.754 -22970208.224 10 0 59259 63000.00000 0 10836389.477 2371671.205 -22936113.887 10 0 59259 63900.00000 0 10874746.217 5180579.710 -22455022.022 10 0 59259 64800.00000 0 11110637.281 7892708.582 -21536510.870 10 0 59259 65700.00000 0 11523543.065 10442288.747 -20198686.450 10 0 59259 66600.00000 0 12082015.391 12769496.368 -18467811.318 10 0 59259 67500.00000 0 12745088.491 14822702.513 -16377774.269 10 0 59259 68400.00000 0 13464106.269 16560380.715 -13969412.586 10 0 59259 69300.00000 0 14184887.118 17952594.527 -11289701.272 10 0 59259 70200.00000 0 14850133.619 18982005.252 -8390826.160 10 0 59259 71100.00000 0 15401984.551 19644360.350 -5329159.799 10 0 59259 72000.00000 0 15784601.089 19948444.853 -2164160.852 10 0 59259 72900.00000 0 15946678.117 19915500.683 1042781.177 10 0 59259 73800.00000 0 15843775.218 19578140.807 4229533.320 10 0 59259 74700.00000 0 15440369.914 18978806.002 7334415.638 10 0 59259 75600.00000 0 14711547.622 18167830.553 10297384.217 10 0 59259 76500.00000 0 13644258.297 17201199.096 13061178.606 10 0 59259 77400.00000 0 12238087.671 16138088.905 15572412.590 10 0 59259 78300.00000 0 10505511.253 15038300.342 17782588.689 10 0 59259 79200.00000 0 8471620.484 13959682.349 19649018.431 10 0 59259 80100.00000 0 6173331.769 12955659.361 21135632.182 10 0 59259 81000.00000 0 3658110.194 12072961.681 22213664.514 10 0 59259 81900.00000 0 982259.103 11349652.773 22862203.180 10 0 59259 82800.00000 0 -1791155.616 10813534.699 23068592.014 10 0 59259 83700.00000 0 -4594663.064 10480997.590 22828680.414 10 0 59259 84600.00000 0 -7358931.701 10356360.985 22146914.475 10 0 59259 85500.00000 0 -10015397.608 10431735.004 21036267.233 99